ZQ-3 R/B

Last updated on Sat Jan 03 2026 00:02:06 GMT+0000 (Coordinated Universal Time)

1 66877U 25282A 26002.33937092 .01163501 82766-5 16488-3 0 9990 2 66877 56.9477 336.2890 0602650 256.8306 96.4854 15.02520103 4441
UTC large
Height (km)
Speed (km/s)
/
Latitude / Longitude
Inclination (degrees)
Orbital Period (minutes)
Azimuth
Elevation
Range (km)
Doppler Factor

Next 0 passes for location: London (51.5072 / 0.1276)

Sorry there are no passes over London.